Regional Weather Roundup
Issued by NWS Wilmington, NC

Home | Current Version | Previous Version | Text Only | Print | Product List | Glossary On
Versions: 1 2 3 4 5 6 7 8 9 10 11 12 13 14 15 16 17 18 19 20 21 22 23 24 25 26 27
000
ASUS42 KILM 242110
RWRILM
RWRILM
REGIONAL HOURLY WEATHER ROUNDUP
NATIONAL WEATHER SERVICE WILMINGTON NC
500 PM EDT FRI OCT 24 2014

NOTE: "FAIR" INDICATES FEW OR NO CLOUDS BELOW 12,000 FEET WITH NO
SIGNIFICANT WEATHER AND/OR OBSTRUCTIONS TO VISIBILITY.

...............WFO WILMINGTON COUNTY WARNING AREA...............

......COASTAL NC AND SC COUNTIES......

CITY           SKY/WX    TMP DP  RH WIND       PRES   REMARKS
WILMINGTON     SUNNY     70  49  47 CALM      29.95F
SOUTHPORT      SUNNY     67  52  58 S6        29.96S
N MYRTLE BEACH SUNNY     67  50  54 S7        29.96F
MYRTLE BEACH   SUNNY     68  48  49 SE10      29.98S

......INLAND NC AND SC COUNTIES.......

CITY           SKY/WX    TMP DP  RH WIND       PRES   REMARKS
LUMBERTON      MOSUNNY   73  44  35 SW3       29.96S
ELIZABETHTOWN  SUNNY     69  46  42 CALM      29.96S
WHITEVILLE     SUNNY     69  47  45 CALM      29.96S
FLORENCE       MOSUNNY   70  44  39 NW3       29.97F
DARLINGTON     FAIR      72  45  37 N6        29.98F

....................REST OF NORTH CAROLINA......................

.........EASTERN NC.........

CITY           SKY/WX    TMP DP  RH WIND       PRES   REMARKS
CAPE HATTERAS  MOSUNNY   62  51  67 NW5       29.93F
JACKSONVILLE   MOSUNNY   70  45  40 W5        29.96R
MOREHEAD CITY  MOSUNNY   68  50  52 W6        29.94F
KENANSVILLE    MOSUNNY   68  46  45 W5        29.96S
NEW BERN       MOSUNNY   72  48  42 W3        29.95F
ELIZABETH CITY SUNNY     69  49  48 W10       29.92R

.........CENTRAL NC.........

CITY           SKY/WX    TMP DP  RH WIND       PRES   REMARKS
RALEIGH DURHAM PTSUNNY   68  47  46 SW5       29.96S
ROCKY MOUNT    PTSUNNY   70  45  40 W5        29.95F
ROANOKE RAPIDS NOT AVBL
FAYETTEVILLE   PTSUNNY   71  45  39 NW6       29.96S
HOFFMAN        MOSUNNY   69  45  41 N6        29.98S

.........WESTERN NC.........

CITY           SKY/WX    TMP DP  RH WIND       PRES   REMARKS
CHARLOTTE      CLOUDY    66  40  38 W5        30.00F
GREENSBORO     PTSUNNY   68  39  34 N3        29.97F
HICKORY        NOT AVBL
BOONE          NOT AVBL
ASHEVILLE      NOT AVBL

.....................REST OF SOUTH CAROLINA.....................

.........EASTERN SC.........

CITY           SKY/WX    TMP DP  RH WIND       PRES   REMARKS
CHARLESTON     MOSUNNY   75  47  36 NW7       29.97F
BEAUFORT MCAS  SUNNY     73  44  35 CALM      29.97F
HILTON HEAD    NOT AVBL

.........CENTRAL SC.........

CITY           SKY/WX    TMP DP  RH WIND       PRES   REMARKS
COLUMBIA       MOSUNNY   70  44  39 N5        29.99R
ORANGEBURG     MOSUNNY   74  44  34 VRB5      29.97F
SUMTER SHAW    PTSUNNY   69  46  42 NW7       29.97S

.........WESTERN SC.........

CITY           SKY/WX    TMP DP  RH WIND       PRES   REMARKS
GREENVILLE     NOT AVBL
ROCK HILL      CLOUDY    66  44  45 N3        30.00F
ANDERSON       PTSUNNY   66  45  46 CALM      30.00F
CLEMSON        NOT AVBL
GREENWOOD      CLOUDY    67  47  48 NW3       30.01F


...................COASTAL AND OFFSHORE REPORTS..................

................LOCAL PIERS AND NC RESERVE................


STATION/POSITION TIME  SKY/WX   TEMP    WIND        PRES    VSBY
                                AIR SEA DIR/SP/G
                 (UTC)          (F)     (DEG/KT/KT) (MB)    (MI)
JOHNY MRCER PIER 2100            68 73  190/  6/  8 1013.8S
NC RESRV MASNBRO 2000            67     160/  3     1015.0S
OCEAN CREST PIER 2100            66 70  140/  5/  7 1013.7S
SPRINGMAID  PIER 2100            67 71  150/  4/  6 1015.0R


................COASTAL AND OFFSHORE BUOYS................


STATION/POSITION TIME  SKY/WX   TEMP    WIND        PRES    VSBY
                                AIR SEA DIR/SP/G
                 (UTC)          (F)     (DEG/KT/KT) (MB)    (MI)
DIMNDSHOAL 41025 2100            64     310/ 12/ 16 1013.3F
WVE H/P(F/S)=  3/ 7 WND WVE H/P(F/S)=  2/ 6 SWL H/P/D(F/S/D)=  3/ 30/ 7

CAPE LOOKOUT     2000            66     260/  4/  5 1014.2F
ONSLOW BAY 41036 2000            67 75  300/  8/ 10 1014.2F
5 WRITEBCH 41038 2100            64 72  190/  4/  6   N/A
MASONBORO  41110 2100               72                N/A
WVE H/P(F/S)=  2/11 WND WVE H/P(F/S)=  2/ 9 SWL H/P/D(F/S/D)=  2/100/11

WILM HARBR 41108 2100               70                N/A
WVE H/P(F/S)=  2/10 WND WVE H/P(F/S)=  2/10

27WRITEBCH 41037 2000            65 75  350/  4/  4 1014.7F
FRYING PAN 41013 2100            67 73   20/  2/  4 1015.4F
WVE H/P(F/S)=  3/10 WND WVE H/P(F/S)=  2/ 4 SWL H/P/D(F/S/D)=  3/ 70/10

SUNST NRSH 41024 2000            67     180/  6/  6 1014.7F
CAPRS NRSH 41029 NOT AVBL
EDISTO     41004 2100            68 78  340/  6/  8 1014.8F
WVE H/P(F/S)=  3/11 WND WVE H/P(F/S)=  2/ 4 SWL H/P/D(F/S/D)=  3/11



..........OFFSHORE BUOYS BEYOND 100 NM OFFSHORE...........
.....IN A TRIANGLE---HAT TO BERMUDA TO BAHAMAS TO HAT.....


STATION/POSITION TIME  SKY/WX   TEMP    WIND        PRES    VSBY
                                AIR SEA DIR/SP/G
                 (UTC)          (F)     (DEG/KT/KT) (MB)    (MI)
150E HAT   41001 NOT AVBL
W BERMUDA  41048 2029            75 79  290/ 10/ 14 1011.7F
WVE H/P(F/S)=  8/10 WND WVE H/P(F/S)=  2/ 5 SWL H/P/D(F/S/D)=  7/350/10

ATLANTIC S 41049 2027            82 81  210/ 10/ 12 1013.0F
WVE H/P(F/S)=  5/12 WND WVE H/P(F/S)=  2/ 4 SWL H/P/D(F/S/D)=  5/340/12

E BAHAMAS  41046 2002            83 84  190/ 10/ 12 1011.5S
WVE H/P(F/S)=  3/ 8 WND WVE H/P(F/S)=  2/ 5 SWL H/P/D(F/S/D)=  2/ 40/ 8

NE BAHAMAS 41047 2030            79 82   80/ 14/ 16 1011.3F
WVE H/P(F/S)=  6/10 WND WVE H/P(F/S)=  3/ 5 SWL H/P/D(F/S/D)=  5/340/10

120E CANVRL41010 2100            75 82   30/  8/ 16 1013.0F
WVE H/P(F/S)=  3/10 WND WVE H/P(F/S)=  2/ 3 SWL H/P/D(F/S/D)=  2/ 50/10


END



USA.gov is the U.S. government's official web portal to all federal, state and local government web resources and services.